• In Germany
  • List of Countries
  • For 7 days
  • Water Temperature
  • Satellite Maps
  • Weather Map
  • Weather Widgets
  • user-avatar
    Login

    Hourly Weather Maceio

    Today, 20 August, Monday

    Time Temperature Precipitation Wind Pressure Humidity
    00:00 +22°C° 0.1 mm 5 mps 764 mmHg 91%
    01:00 +22°C° 0.1 mm 5 mps 764 mmHg 92%
    02:00 +22°C° 0.1 mm 5 mps 764 mmHg 92%
    03:00 +22°C° 0.1 mm 5 mps 763 mmHg 92%
    04:00 +22°C° 0 mm 5 mps 763 mmHg 92%
    05:00 +22°C° 0.1 mm 5 mps 763 mmHg 92%
    06:00 +22°C° 0.1 mm 5 mps 763 mmHg 92%
    07:00 +22°C° 0.1 mm 5 mps 763 mmHg 92%
    08:00 +25°C° 0.1 mm 5 mps 764 mmHg 84%
    09:00 +27°C° 0.1 mm 5 mps 764 mmHg 75%
    10:00 +29°C° 0.1 mm 6 mps 764 mmHg 67%
    11:00 +29°C° 0.1 mm 6 mps 764 mmHg 64%
    12:00 +30°C° 0.1 mm 6 mps 764 mmHg 61%
    13:00 +30°C° 0.1 mm 6 mps 764 mmHg 58%
    14:00 +30°C° 0.1 mm 5 mps 763 mmHg 59%
    15:00 +30°C° 0.1 mm 5 mps 763 mmHg 61%
    16:00 +30°C° 0.1 mm 5 mps 763 mmHg 62%
    17:00 +28°C° 0.1 mm 5 mps 763 mmHg 70%
    18:00 +26°C° 0.1 mm 5 mps 763 mmHg 78%
    19:00 +23°C° 0.1 mm 4 mps 763 mmHg 86%
    20:00 +23°C° 0 mm 4 mps 763 mmHg 88%
    21:00 +23°C° 0 mm 4 mps 764 mmHg 90%
    22:00 +22°C° 0 mm 4 mps 764 mmHg 92%
    23:00 +22°C° 0.1 mm 4 mps 764 mmHg 93%

    Tomorrow, 21 August, Tuesday

    Time Temperature Precipitation Wind Pressure Humidity
    00:00 +22°C° 0.1 mm 4 mps 764 mmHg 93%
    01:00 +22°C° 0.1 mm 4 mps 764 mmHg 93%
    02:00 +22°C° 0.1 mm 4 mps 763 mmHg 93%
    03:00 +22°C° 0.1 mm 4 mps 763 mmHg 93%
    04:00 +22°C° 0.1 mm 4 mps 762 mmHg 93%
    05:00 +22°C° 0.1 mm 4 mps 763 mmHg 93%
    06:00 +22°C° 0.1 mm 4 mps 763 mmHg 92%
    07:00 +22°C° 0.1 mm 4 mps 763 mmHg 92%
    08:00 +25°C° 0.2 mm 4 mps 764 mmHg 85%
    09:00 +27°C° 0.2 mm 5 mps 764 mmHg 78%
    10:00 +28°C° 0.2 mm 5 mps 765 mmHg 71%
    11:00 +29°C° 0.2 mm 5 mps 764 mmHg 67%
    12:00 +30°C° 0.2 mm 5 mps 764 mmHg 62%
    13:00 +32°C° 0.2 mm 5 mps 764 mmHg 58%
    14:00 +30°C° 0.1 mm 5 mps 763 mmHg 60%
    15:00 +30°C° 0.1 mm 5 mps 763 mmHg 62%
    16:00 +29°C° 0.1 mm 5 mps 762 mmHg 64%
    17:00 +28°C° 0.1 mm 5 mps 762 mmHg 72%
    18:00 +26°C° 0.1 mm 5 mps 762 mmHg 79%
    19:00 +23°C° 0.1 mm 5 mps 763 mmHg 87%
    20:00 +23°C° 0.1 mm 5 mps 763 mmHg 89%
    21:00 +22°C° 0.1 mm 5 mps 763 mmHg 91%
    22:00 +22°C° 0.1 mm 5 mps 764 mmHg 93%
    23:00 +22°C° 0 mm 4 mps 764 mmHg 93%

    Day after tomorrow, 22 August, Wednesday

    Time Temperature Precipitation Wind Pressure Humidity
    00:00 +22°C° 0 mm 4 mps 763 mmHg 94%
    01:00 +22°C° 0 mm 4 mps 763 mmHg 94%
    02:00 +22°C° 0.1 mm 4 mps 763 mmHg 94%
    03:00 +22°C° 0.1 mm 4 mps 763 mmHg 94%
    04:00 +22°C° 0.1 mm 4 mps 762 mmHg 94%
    05:00 +22°C° 0.1 mm 4 mps 762 mmHg 94%
    06:00 +22°C° 0.1 mm 5 mps 763 mmHg 94%
    07:00 +22°C° 0.1 mm 5 mps 763 mmHg 94%
    08:00 +25°C° 0 mm 5 mps 763 mmHg 85%
    09:00 +27°C° 0 mm 5 mps 764 mmHg 76%
    10:00 +28°C° 0 mm 5 mps 765 mmHg 67%
    11:00 +29°C° 0.1 mm 5 mps 764 mmHg 63%
    12:00 +30°C° 0.1 mm 5 mps 764 mmHg 60%
    13:00 +30°C° 0.1 mm 6 mps 763 mmHg 56%
    14:00 +30°C° 0 mm 5 mps 763 mmHg 58%
    15:00 +30°C° 0 mm 5 mps 762 mmHg 59%
    16:00 +29°C° 0 mm 5 mps 761 mmHg 60%
    17:00 +28°C° 0 mm 5 mps 762 mmHg 68%
    18:00 +26°C° 0 mm 4 mps 762 mmHg 75%
    19:00 +23°C° 0 mm 4 mps 762 mmHg 83%
    20:00 +22°C° 0 mm 4 mps 762 mmHg 86%
    21:00 +22°C° 0 mm 4 mps 763 mmHg 89%
    22:00 +21°C° 0 mm 4 mps 763 mmHg 92%
    23:00 +22°C° 0.1 mm 4 mps 763 mmHg 92%

    23 August, Thursday

    Time Temperature Precipitation Wind Pressure Humidity
    00:00 +22°C° 0.1 mm 4 mps 763 mmHg 93%
    01:00 +22°C° 0.1 mm 3 mps 762 mmHg 93%
    02:00 +21°C° 0.1 mm 3 mps 762 mmHg 93%
    03:00 +21°C° 0.1 mm 3 mps 762 mmHg 93%
    04:00 +21°C° 0.1 mm 3 mps 761 mmHg 93%
    05:00 +21°C° 0.3 mm 3 mps 761 mmHg 93%
    06:00 +22°C° 0.3 mm 4 mps 762 mmHg 93%
    07:00 +22°C° 0.3 mm 4 mps 762 mmHg 93%
    08:00 +25°C° 0.2 mm 4 mps 762 mmHg 87%
    09:00 +26°C° 0.2 mm 5 mps 763 mmHg 81%
    10:00 +28°C° 0.2 mm 5 mps 763 mmHg 75%
    11:00 +29°C° 0.3 mm 5 mps 763 mmHg 71%
    12:00 +30°C° 0.3 mm 5 mps 762 mmHg 66%
    13:00 +30°C° 0.3 mm 5 mps 762 mmHg 61%
    14:00 +30°C° 0.2 mm 5 mps 762 mmHg 63%
    15:00 +29°C° 0.2 mm 5 mps 761 mmHg 65%
    16:00 +29°C° 0.2 mm 5 mps 761 mmHg 67%
    17:00 +27°C° 0 mm 5 mps 761 mmHg 74%
    18:00 +26°C° 0 mm 4 mps 761 mmHg 80%
    19:00 +23°C° 0 mm 4 mps 762 mmHg 87%
    20:00 +23°C° 0 mm 4 mps 762 mmHg 89%
    21:00 +22°C° 0 mm 4 mps 763 mmHg 91%
    22:00 +22°C° 0 mm 4 mps 763 mmHg 93%
    23:00 +22°C° 0 mm 4 mps 763 mmHg 93%

    24 August, Friday

    Time Temperature Precipitation Wind Pressure Humidity
    00:00 +22°C° 0 mm 4 mps 762 mmHg 93%
    01:00 +22°C° 0 mm 4 mps 762 mmHg 93%
    02:00 +22°C° 0 mm 4 mps 762 mmHg 93%
    03:00 +21°C° 0 mm 4 mps 762 mmHg 93%
    04:00 +21°C° 0 mm 4 mps 761 mmHg 93%
    05:00 +21°C° 0 mm 4 mps 762 mmHg 93%
    06:00 +21°C° 0 mm 4 mps 762 mmHg 93%
    07:00 +21°C° 0 mm 4 mps 762 mmHg 93%
    08:00 +25°C° 0 mm 4 mps 763 mmHg 84%
    09:00 +27°C° 0 mm 5 mps 763 mmHg 75%
    10:00 +29°C° 0 mm 5 mps 763 mmHg 66%
    11:00 +30°C° 0 mm 5 mps 763 mmHg 61%
    12:00 +30°C° 0 mm 5 mps 763 mmHg 56%
    13:00 +32°C° 0 mm 5 mps 762 mmHg 51%
    14:00 +32°C° 0 mm 5 mps 762 mmHg 52%
    15:00 +32°C° 0 mm 5 mps 761 mmHg 53%
    16:00 +30°C° 0 mm 5 mps 761 mmHg 54%
    17:00 +28°C° 0 mm 4 mps 761 mmHg 64%
    18:00 +26°C° 0 mm 4 mps 762 mmHg 74%
    19:00 +23°C° 0 mm 4 mps 762 mmHg 84%
    20:00 +23°C° 0 mm 4 mps 762 mmHg 87%
    21:00 +22°C° 0 mm 4 mps 763 mmHg 89%
    22:00 +22°C° 0 mm 4 mps 763 mmHg 91%
    23:00 +22°C° 0 mm 4 mps 763 mmHg 92%

    25 August, Saturday

    Time Temperature Precipitation Wind Pressure Humidity
    00:00 +21°C° 0 mm 3 mps 763 mmHg 92%
    01:00 +21°C° 0 mm 3 mps 763 mmHg 92%
    02:00 +21°C° 0 mm 3 mps 762 mmHg 92%
    03:00 +21°C° 0 mm 3 mps 762 mmHg 93%
    04:00 +21°C° 0 mm 3 mps 762 mmHg 93%
    05:00 +21°C° 0.1 mm 3 mps 762 mmHg 93%
    06:00 +21°C° 0.1 mm 3 mps 762 mmHg 94%
    07:00 +21°C° 0.1 mm 3 mps 763 mmHg 94%
    08:00 +23°C° 0 mm 4 mps 763 mmHg 85%
    09:00 +27°C° 0 mm 4 mps 763 mmHg 76%
    10:00 +29°C° 0 mm 4 mps 764 mmHg 66%
    11:00 +29°C° 0.2 mm 4 mps 763 mmHg 65%
    12:00 +30°C° 0.2 mm 4 mps 763 mmHg 64%
    13:00 +30°C° 0.2 mm 4 mps 762 mmHg 63%
    14:00 +30°C° 0.2 mm 5 mps 762 mmHg 65%
    15:00 +30°C° 0.2 mm 5 mps 761 mmHg 67%
    16:00 +29°C° 0.2 mm 5 mps 761 mmHg 69%
    17:00 +28°C° 0.1 mm 5 mps 761 mmHg 76%
    18:00 +26°C° 0.1 mm 4 mps 761 mmHg 83%
    19:00 +23°C° 0.1 mm 4 mps 762 mmHg 90%
    20:00 +23°C° 0 mm 4 mps 762 mmHg 91%
    21:00 +23°C° 0 mm 4 mps 762 mmHg 92%
    22:00 +22°C° 0 mm 3 mps 763 mmHg 93%
    23:00 +22°C° 0.1 mm 3 mps 762 mmHg 94%
    Show more